EW4443 Weather Reports


time (UTC)temp
C
wind
direction
speed
KPH
gust
KPH
rain 1hr
cm
rain 24hr
cm
rain mn
cm
humidity
%
barometer
mb
20260905232946 40 113 3.2 12.9 0.00 0.00 0.00 25 1008.7
20260905232446 40 338 1.6 12.9 0.00 0.00 0.00 27 1008.7
20260905231947 40 90 3.2 12.9 0.00 0.00 0.00 27 1008.7
20260905231447 40 338 1.6 12.9 0.00 0.00 0.00 27 1008.7
20260905230947 40 338 1.6 12.9 0.00 0.00 0.00 27 1008.7
20260905230447 40 0 3.2 12.9 0.00 0.00 0.00 27 1008.3
20260905225947 40 338 3.2 12.9 0.00 0.00 0.00 27 1008.7
20260905225447 40 270 3.2 12.9 0.00 0.00 0.00 27 1008.3
20260905224946 40 248 3.2 12.9 0.00 0.00 0.00 27 1008.7
20260905224446 40 0 1.6 8.0 0.00 0.00 0.00 29 1008.7
20260905223946 40 338 1.6 8.0 0.00 0.00 0.00 29 1008.7
20260905223445 40 45 1.6 9.7 0.00 0.00 0.00 29 1008.7
20260905223217 39 23 1.6 9.7 0.00 0.00 0.00 29 1008.7
20260905222446 39 0 1.6 12.9 0.00 0.00 0.00 29 1008.7
20260905221946 39 338 1.6 12.9 0.00 0.00 0.00 29 1009.0
20260905221446 39 23 1.6 8.0 0.00 0.00 0.00 27 1009.0
20260905220947 39 270 1.6 9.7 0.00 0.00 0.00 29 1009.0
20260905220445 39 45 1.6 11.3 0.00 0.00 0.00 29 1009.3
20260905215944 39 180 1.6 11.3 0.00 0.00 0.00 27 1009.0
20260905215445 39 270 3.2 11.3 0.00 0.00 0.00 29 1009.0
20260905214945 39 293 1.6 11.3 0.00 0.00 0.00 29 1009.3
20260905214446 39 270 0.0 8.0 0.00 0.00 0.00 30 1009.3
20260905213946 39 338 1.6 14.5 0.00 0.00 0.00 30 1009.3
20260905213446 39 338 1.6 14.5 0.00 0.00 0.00 30 1009.3
20260905212946 39 338 1.6 9.7 0.00 0.00 0.00 29 1009.7
20260905212446 39 23 1.6 12.9 0.00 0.00 0.00 30 1009.3
20260905211944 38 270 1.6 12.9 0.00 0.00 0.00 30 1009.7
20260905211444 38 270 1.6 11.3 0.00 0.00 0.00 30 1009.7
20260905210945 38 315 1.6 11.3 0.00 0.00 0.00 30 1009.7
20260905210444 38 270 1.6 9.7 0.00 0.00 0.00 29 1010.0
20260905205946 38 225 1.6 8.0 0.00 0.00 0.00 29 1010.0
20260905205446 38 270 0.0 9.7 0.00 0.00 0.00 30 1010.0
20260905205217 38 45 1.6 9.7 0.00 0.00 0.00 30 1010.5
20260905204445 38 315 1.6 9.7 0.00 0.00 0.00 30 1010.0
20260905203946 38 158 1.6 12.9 0.00 0.00 0.00 29 1010.5
20260905203444 38 293 1.6 12.9 0.00 0.00 0.00 29 1010.5
20260905202944 38 293 1.6 8.0 0.00 0.00 0.00 30 1010.5
20260905202714 38 0 1.6 9.7 0.00 0.00 0.00 30 1010.8
20260905201944 38 0 1.6 9.7 0.00 0.00 0.00 31 1010.8
20260905201445 38 45 0.0 6.4 0.00 0.00 0.00 31 1010.8
20260905200944 38 203 0.0 6.4 0.00 0.00 0.00 30 1010.8
20260905200445 38 203 1.6 8.0 0.00 0.00 0.00 30 1010.8
20260905200215 38 135 1.6 8.0 0.00 0.00 0.00 30 1010.8
20260905195445 38 68 1.6 6.4 0.00 0.00 0.00 30 1010.8
20260905195215 38 180 1.6 8.0 0.00 0.00 0.00 29 1011.1
20260905194444 38 158 1.6 8.0 0.00 0.00 0.00 29 1011.1
20260905193944 38 293 1.6 6.4 0.00 0.00 0.00 29 1011.1
20260905193444 38 270 1.6 9.7 0.00 0.00 0.00 29 1011.1
20260905192945 38 315 1.6 9.7 0.00 0.00 0.00 30 1011.5
20260905192445 38 68 1.6 8.0 0.00 0.00 0.00 30 1011.8
20260905191945 38 270 1.6 6.4 0.00 0.00 0.00 30 1011.5
20260905191444 38 338 1.6 6.4 0.00 0.00 0.00 30 1011.5
20260905190945 38 45 1.6 6.4 0.00 0.00 0.00 31 1011.5
20260905190444 37 90 0.0 6.4 0.00 0.00 0.00 31 1011.8
20260905185944 37 23 0.0 6.4 0.00 0.00 0.00 31 1011.8
20260905185444 37 45 0.0 4.8 0.00 0.00 0.00 32 1011.8
20260905184944 37 23 0.0 3.2 0.00 0.00 0.00 31 1011.8
20260905184444 37 45 0.0 8.0 0.00 0.00 0.00 31 1011.8
20260905183945 37 203 1.6 8.0 0.00 0.00 0.00 30 1012.1
20260905183447 37 180 0.0 6.4 0.00 0.00 0.00 30 1012.1
20260905182944 37 90 0.0 4.8 0.00 0.00 0.00 30 1012.1
20260905182449 37 315 0.0 3.2 0.00 0.00 0.00 31 1012.1
20260905181944 37 248 0.0 3.2 0.00 0.00 0.00 30 1012.5
20260905181715 37 225 0.0 4.8 0.00 0.00 0.00 30 1012.5
20260905180943 37 0 0.0 4.8 0.00 0.00 0.00 30 1012.1
20260905180444 37 338 0.0 4.8 0.00 0.00 0.00 30 1012.5
20260905175944 37 23 0.0 4.8 0.00 0.00 0.00 30 1012.5
20260905175444 37 270 0.0 1.6 0.00 0.00 0.00 31 1012.5
20260905174945 37 180 0.0 1.6 0.00 0.00 0.00 30 1012.5
20260905174444 37 45 0.0 4.8 0.00 0.00 0.00 31 1012.5
20260905173944 37 23 0.0 4.8 0.00 0.00 0.00 31 1012.1
20260905173444 37 23 0.0 6.4 0.00 0.00 0.00 31 1012.1
20260905172943 36 338 1.6 6.4 0.00 0.00 0.00 34 1012.5
20260905172444 36 45 0.0 4.8 0.00 0.00 0.00 35 1012.1
20260905171943 36 68 0.0 6.4 0.00 0.00 0.00 35 1012.1
20260905171444 35 45 1.6 6.4 0.00 0.00 0.00 35 1012.5
20260905170944 35 90 0.0 3.2 0.00 0.00 0.00 35 1012.5
20260905170445 35 0 0.0 4.8 0.00 0.00 0.00 35 1012.5
20260905165944 35 23 0.0 6.4 0.00 0.00 0.00 35 1012.5
20260905165716 35 45 0.0 6.4 0.00 0.00 0.00 37 1012.5
20260905164944 35 23 0.0 1.6 0.00 0.00 0.00 37 1012.5
20260905164443 34 203 0.0 1.6 0.00 0.00 0.00 35 1012.1
20260905163943 34 180 0.0 6.4 0.00 0.00 0.00 37 1012.1
20260905163443 34 338 1.6 6.4 0.00 0.00 0.00 39 1012.5
20260905162943 33 23 1.6 6.4 0.00 0.00 0.00 40 1012.5
20260905162444 33 68 0.0 4.8 0.00 0.00 0.00 41 1012.5
20260905161945 32 180 0.0 3.2 0.00 0.00 0.00 41 1012.5
20260905161444 32 203 0.0 3.2 0.00 0.00 0.00 41 1012.1
20260905160945 32 248 0.0 3.2 0.00 0.00 0.00 41 1012.1
20260905160444 31 270 0.0 4.8 0.00 0.00 0.00 43 1012.5
20260905155943 31 158 0.0 4.8 0.00 0.00 0.00 44 1012.5
20260905155444 31 180 0.0 4.8 0.00 0.00 0.00 43 1012.5
20260905154943 31 248 0.0 1.6 0.00 0.00 0.00 45 1012.5
20260905154443 31 270 0.0 0.0 0.00 0.00 0.00 44 1012.5
20260905153944 31 23 0.0 1.6 0.00 0.00 0.00 45 1012.5
20260905153445 30 90 0.0 1.6 0.00 0.00 0.00 48 1012.1
20260905152945 30 45 0.0 0.0 0.00 0.00 0.00 48 1012.1
20260905152444 30 248 0.0 0.0 0.00 0.00 0.00 48 1012.1
20260905151944 30 225 0.0 0.0 0.00 0.00 0.00 46 1012.1
20260905151443 30 225 0.0 0.0 0.00 0.00 0.00 48 1012.1
20260905150943 30 225 0.0 0.0 0.00 0.00 0.00 50 1012.1
20260905150443 30 135 0.0 0.0 0.00 0.00 0.00 49 1012.1
20260905145943 29 203 0.0 0.0 0.00 0.00 0.00 49 1012.1
20260905145443 29 180 0.0 3.2 0.00 0.00 0.00 49 1012.1
20260905144944 29 315 0.0 3.2 0.00 0.00 0.00 50 1012.1
20260905144715 28 315 0.0 0.0 0.00 0.00 0.00 50 1012.1
20260905143944 28 45 0.0 0.0 0.00 0.00 0.00 51 1012.1
20260905143445 28 90 0.0 1.6 0.00 0.00 0.00 50 1012.1
20260905142945 28 315 0.0 4.8 0.00 0.00 0.00 50 1012.1
20260905142443 28 180 0.0 4.8 0.00 0.00 0.00 51 1011.8
20260905141943 28 180 0.0 3.2 0.00 0.00 0.00 51 1012.1
20260905141443 27 135 0.0 3.2 0.00 0.00 0.00 53 1011.8
20260905140943 27 203 0.0 0.0 0.00 0.00 0.00 53 1011.8
20260905140444 27 45 0.0 0.0 0.00 0.00 0.00 53 1011.8
20260905135945 27 23 0.0 0.0 0.00 0.00 0.00 53 1011.5
20260905135444 27 158 0.0 0.0 0.00 0.00 0.00 54 1011.8
20260905134944 27 23 0.0 0.0 0.00 0.00 0.00 53 1011.5
20260905134444 27 23 0.0 0.0 0.00 0.00 0.00 53 1011.5
20260905133943 27 68 0.0 0.0 0.00 0.00 0.00 55 1011.5
20260905133437 27 68 0.0 0.0 0.00 0.00 0.00 55 1011.5
20260905132925 27 68 0.0 0.0 0.00 0.00 0.00 54 1011.1
20260905132424 27 68 0.0 0.0 0.00 0.00 0.00 54 1011.1
20260905131925 27 90 0.0 0.0 0.00 0.00 0.00 51 1011.1
20260905131426 27 68 0.0 0.0 0.00 0.00 0.00 53 1011.1
20260905130925 27 90 0.0 0.0 0.00 0.00 0.00 51 1011.1
20260905130426 27 45 0.0 0.0 0.00 0.00 0.00 51 1011.1
20260905125926 27 225 0.0 0.0 0.00 0.00 0.00 50 1011.1
20260905125426 27 203 0.0 3.2 0.00 0.00 0.00 50 1011.1
20260905124926 27 0 0.0 3.2 0.00 0.00 0.00 51 1011.1
20260905124424 27 45 0.0 0.0 0.00 0.00 0.00 51 1011.1
20260905123925 27 0 0.0 0.0 0.00 0.00 0.00 51 1010.8
20260905123424 27 270 0.0 0.0 0.00 0.00 0.00 51 1010.8
20260905123157 27 270 0.0 0.0 0.00 0.00 0.00 50 1010.8
20260905122430 27 180 0.0 0.0 0.00 0.00 0.00 50 1010.8
20260905122426 27 270 0.0 0.0 0.00 0.00 0.00 50 1010.8
20260905121656 27 248 0.0 0.0 0.00 0.00 0.00 50 1010.8
20260905120926 27 338 0.0 0.0 0.00 0.00 0.00 50 1010.8
20260905120655 27 45 0.0 0.0 0.00 0.00 0.00 50 1010.8
20260905115924 28 203 0.0 0.0 0.00 0.00 0.00 50 1010.8
20260905115425 28 270 0.0 0.0 0.00 0.00 0.00 50 1010.8
20260905114924 28 203 0.0 0.0 0.00 0.00 0.00 51 1010.5
20260905114656 28 180 0.0 0.0 0.00 0.00 0.00 50 1010.5
20260905113925 28 45 0.0 0.0 0.00 0.00 0.00 50 1010.5
20260905113426 28 45 0.0 0.0 0.00 0.00 0.00 50 1010.5
20260905112925 28 23 0.0 0.0 0.00 0.00 0.00 50 1010.5
20260905112425 28 90 0.0 0.0 0.00 0.00 0.00 50 1010.5
20260905111925 28 338 0.0 0.0 0.00 0.00 0.00 50 1010.8
20260905111424 28 338 0.0 0.0 0.00 0.00 0.00 50 1010.5
20260905110924 28 338 0.0 0.0 0.00 0.00 0.00 48 1010.5
20260905110424 28 338 0.0 0.0 0.00 0.00 0.00 49 1010.5
20260905105925 28 248 0.0 0.0 0.00 0.00 0.00 49 1010.5
20260905105425 28 45 0.0 0.0 0.00 0.00 0.00 49 1010.5
20260905104926 28 23 0.0 0.0 0.00 0.00 0.00 49 1010.5
20260905104426 28 248 0.0 0.0 0.00 0.00 0.00 48 1010.5
20260905103925 28 248 0.0 0.0 0.00 0.00 0.00 46 1010.5
20260905103424 28 180 0.0 0.0 0.00 0.00 0.00 49 1010.5
20260905102924 28 113 0.0 0.0 0.00 0.00 0.00 49 1010.5
20260905102424 28 113 0.0 0.0 0.00 0.00 0.00 49 1010.0
20260905101924 28 113 0.0 0.0 0.00 0.00 0.00 49 1010.5
20260905101425 28 68 0.0 0.0 0.00 0.00 0.00 49 1010.5
20260905100926 29 45 0.0 0.0 0.00 0.00 0.00 49 1010.0
20260905100425 29 23 0.0 0.0 0.00 0.00 0.00 48 1010.5
20260905095926 29 315 0.0 0.0 0.00 0.00 0.00 48 1010.0
20260905095425 29 0 0.0 0.0 0.00 0.00 0.00 46 1010.0
20260905094926 29 338 0.0 0.0 0.00 0.00 0.00 46 1010.0
20260905094426 29 338 0.0 0.0 0.00 0.00 0.00 48 1010.0
20260905093925 29 135 0.0 0.0 0.00 0.00 0.00 48 1010.5
20260905093424 29 113 0.0 0.0 0.00 0.00 0.00 48 1010.0
20260905092925 29 180 0.0 0.0 0.00 0.00 0.00 46 1010.0
20260905092425 29 293 0.0 0.0 0.00 0.00 0.00 45 1010.0
20260905091925 29 23 0.0 0.0 0.00 0.00 0.00 48 1010.5
20260905091426 29 45 0.0 0.0 0.00 0.00 0.00 46 1010.0
20260905090925 29 23 0.0 0.0 0.00 0.00 0.00 46 1010.0
20260905090425 29 68 0.0 0.0 0.00 0.00 0.00 46 1010.0
20260905085925 29 68 0.0 0.0 0.00 0.00 0.00 46 1009.7
20260905085424 29 68 0.0 0.0 0.00 0.00 0.00 45 1010.0
20260905085155 30 45 0.0 0.0 0.00 0.00 0.00 45 1010.0
20260905084655 30 45 0.0 0.0 0.00 0.00 0.00 46 1010.0
20260905083926 30 68 0.0 0.0 0.00 0.00 0.00 46 1010.0
20260905083426 30 338 0.0 0.0 0.00 0.00 0.00 45 1010.0
20260905083156 30 68 0.0 0.0 0.00 0.00 0.00 45 1010.0
20260905082425 30 293 0.0 0.0 0.00 0.00 0.00 45 1010.0
20260905081926 30 293 0.0 0.0 0.00 0.00 0.00 45 1010.0
20260905081424 30 45 0.0 0.0 0.00 0.00 0.00 45 1010.0
20260905080924 30 45 0.0 0.0 0.00 0.00 0.00 45 1010.0
20260905080424 30 45 0.0 0.0 0.00 0.00 0.00 45 1010.5
20260905075924 30 45 0.0 0.0 0.00 0.00 0.00 45 1010.5
20260905075425 30 68 0.0 0.0 0.00 0.00 0.00 45 1010.5
20260905074925 30 158 0.0 0.0 0.00 0.00 0.00 43 1010.0
20260905074657 30 180 0.0 0.0 0.00 0.00 0.00 44 1010.5
20260905074156 30 90 0.0 0.0 0.00 0.00 0.00 43 1010.0
20260905073426 30 68 0.0 0.0 0.00 0.00 0.00 44 1010.5
20260905073155 30 68 0.0 0.0 0.00 0.00 0.00 44 1009.7
20260905072425 30 68 0.0 0.0 0.00 0.00 0.00 43 1010.0
20260905071924 31 270 0.0 0.0 0.00 0.00 0.00 44 1010.0
20260905071424 31 270 0.0 0.0 0.00 0.00 0.00 43 1009.7
20260905070924 31 270 0.0 0.0 0.00 0.00 0.00 41 1010.0
20260905070425 31 270 0.0 0.0 0.00 0.00 0.00 41 1010.0
20260905065926 31 270 0.0 0.0 0.00 0.00 0.00 41 1010.0
20260905065426 31 270 0.0 0.0 0.00 0.00 0.00 41 1010.0
20260905064925 31 270 0.0 0.0 0.00 0.00 0.00 40 1010.0
20260905064424 31 270 0.0 0.0 0.00 0.00 0.00 41 1010.0
20260905063918 31 270 0.0 0.0 0.00 0.00 0.00 40 1010.0
20260905063406 31 270 0.0 0.0 0.00 0.00 0.00 40 1009.7
20260905062905 31 270 0.0 0.0 0.00 0.00 0.00 40 1009.7
20260905062405 31 270 0.0 0.0 0.00 0.00 0.00 40 1010.0
20260905061906 32 270 0.0 0.0 0.00 0.00 0.00 40 1010.0
20260905061637 32 270 0.0 0.0 0.00 0.00 0.00 39 1009.7
20260905060906 32 270 0.0 0.0 0.00 0.00 0.00 39 1010.0
20260905060407 32 270 0.0 0.0 0.00 0.00 0.00 40 1010.0
20260905055907 32 270 0.0 0.0 0.00 0.00 0.00 37 1009.7
20260905055405 32 270 0.0 0.0 0.00 0.00 0.00 37 1010.0
20260905054905 32 270 0.0 0.0 0.00 0.00 0.00 37 1009.7
20260905054405 32 270 0.0 0.0 0.00 0.00 0.00 37 1010.0
20260905053906 32 270 0.0 0.0 0.00 0.00 0.00 37 1009.7
20260905053406 32 270 0.0 0.0 0.00 0.00 0.00 35 1009.7
20260905052907 33 270 0.0 0.0 0.00 0.00 0.00 35 1009.3
20260905052638 33 270 0.0 1.6 0.00 0.00 0.00 35 1009.3
20260905051907 33 270 0.0 3.2 0.00 0.00 0.00 34 1009.3
20260905051406 33 270 0.0 3.2 0.00 0.00 0.00 34 1009.7
20260905050906 33 270 0.0 3.2 0.00 0.00 0.00 34 1009.3
20260905050407 33 270 0.0 3.2 0.00 0.00 0.00 34 1009.3
20260905045906 33 270 0.0 1.6 0.00 0.00 0.00 34 1009.3
20260905045405 33 270 0.0 3.2 0.00 0.00 0.00 32 1009.3
20260905044906 33 225 0.0 3.2 0.00 0.00 0.00 32 1009.3
20260905044406 33 270 0.0 1.6 0.00 0.00 0.00 31 1009.3
20260905043906 34 270 0.0 0.0 0.00 0.00 0.00 31 1009.7
20260905043407 34 270 0.0 1.6 0.00 0.00 0.00 30 1009.3
20260905042906 34 293 0.0 3.2 0.00 0.00 0.00 30 1009.3
20260905042637 34 270 0.0 3.2 0.00 0.00 0.00 30 1009.3
20260905041910 34 270 0.0 4.8 0.00 0.00 0.00 29 1009.3
20260905041906 34 293 0.0 4.8 0.00 0.00 0.00 29 1009.0
20260905040905 34 270 0.0 6.4 0.00 0.00 0.00 29 1009.0
20260905040405 34 270 0.0 6.4 0.00 0.00 0.00 29 1009.0
20260905035907 34 293 0.0 6.4 0.00 0.00 0.00 29 1009.0
20260905035406 34 180 0.0 6.4 0.00 0.00 0.00 29 1009.0
20260905034906 34 248 1.6 6.4 0.00 0.00 0.00 29 1009.0
20260905034638 35 270 0.0 6.4 0.00 0.00 0.00 29 1009.0
20260905033906 35 270 1.6 6.4 0.00 0.00 0.00 27 1009.0
20260905033405 35 225 0.0 8.0 0.00 0.00 0.00 29 1008.7
20260905032906 35 270 1.6 8.0 0.00 0.00 0.00 29 1009.0
20260905032405 34 225 1.6 6.4 0.00 0.00 0.00 29 1008.7
20260905031905 35 270 0.0 8.0 0.00 0.00 0.00 30 1009.0
20260905031406 35 23 1.6 8.0 0.00 0.00 0.00 30 1008.7
20260905030906 35 23 1.6 4.8 0.00 0.00 0.00 31 1008.7
20260905030406 34 270 0.0 4.8 0.00 0.00 0.00 34 1008.7
20260905025906 34 270 0.0 4.8 0.00 0.00 0.00 35 1008.0
20260905025407 34 270 0.0 1.6 0.00 0.00 0.00 35 1008.3
20260905025136 34 90 0.0 1.6 0.00 0.00 0.00 35 1008.0
20260905024405 34 90 0.0 4.8 0.00 0.00 0.00 35 1008.0
20260905024138 34 113 1.6 4.8 0.00 0.00 0.00 37 1008.0
20260905023405 34 68 0.0 3.2 0.00 0.00 0.00 35 1008.0
20260905022906 35 45 0.0 1.6 0.00 0.00 0.00 37 1008.0
20260905022406 35 45 0.0 1.6 0.00 0.00 0.00 37 1008.0
20260905022137 35 45 0.0 0.0 0.00 0.00 0.00 37 1007.3
20260905021407 35 45 0.0 0.0 0.00 0.00 0.00 35 1007.6
20260905020907 35 68 0.0 0.0 0.00 0.00 0.00 37 1007.3
20260905020405 35 68 0.0 0.0 0.00 0.00 0.00 37 1007.6
20260905015907 35 68 0.0 1.6 0.00 0.00 0.00 37 1007.6
20260905015406 35 45 0.0 1.6 0.00 0.00 0.00 35 1007.3
20260905014905 35 68 0.0 0.0 0.00 0.00 0.00 35 1007.6
20260905014406 35 68 0.0 0.0 0.00 0.00 0.00 35 1007.3
20260905013907 35 68 0.0 3.2 0.00 0.00 0.00 35 1007.3
20260905013406 35 68 0.0 3.2 0.00 0.00 0.00 35 1007.3
20260905012906 35 90 0.0 4.8 0.00 0.00 0.00 34 1007.3
20260905012406 36 68 0.0 4.8 0.00 0.00 0.00 34 1007.3
20260905012136 36 338 0.0 1.6 0.00 0.00 0.00 34 1007.3
20260905011406 36 23 0.0 3.2 0.00 0.00 0.00 32 1007.3
20260905010906 36 0 0.0 3.2 0.00 0.00 0.00 34 1007.3
20260905010405 36 0 0.0 0.0 0.00 0.00 0.00 34 1007.3
20260905005906 36 315 0.0 0.0 0.00 0.00 0.00 34 1007.3
20260905005406 36 0 0.0 4.8 0.00 0.00 0.00 34 1007.3
20260905004906 36 90 0.0 4.8 0.00 0.00 0.00 32 1007.3
20260905004407 36 0 0.0 3.2 0.00 0.00 0.00 31 1007.3
20260905003906 36 45 0.0 3.2 0.00 0.00 0.00 30 1007.3
20260905003406 36 90 0.0 4.8 0.00 0.00 0.00 30 1007.3
20260905002905 36 158 0.0 4.8 0.00 0.00 0.00 30 1007.6
20260905002405 37 203 0.0 8.0 0.00 0.00 0.00 30 1007.6
20260905001905 37 158 1.6 8.0 0.00 0.00 0.00 30 1008.0
20260905001405 37 203 0.0 6.4 0.00 0.00 0.00 30 1007.3
20260905001137 37 158 1.6 6.4 0.00 0.00 0.00 30 1007.6
20260905000406 37 180 1.6 8.0 0.00 0.00 0.00 30 1007.6
20260904235907 37 248 1.6 9.7 0.00 0.00 0.00 30 1007.3
20260904235406 37 45 1.6 9.7 0.00 0.00 0.00 30 1007.6
20260904234854 37 270 1.6 8.0 0.00 0.00 0.00 30 1007.6
20260904234618 37 225 1.6 8.0 0.00 0.00 0.00 29 1007.6
20260904233846 37 203 1.6 6.4 0.00 0.00 0.00 30 1007.6